Lancaster, PA

9:25 PM EST on February 11, 2016 (GMT -0500)
Lancaster

Weather History for KLNS - May, 2012

Change the Weather History Date:

Wednesday, May 16, 2012

  Actual Average (WUND) Record (WUND)
Temperature  
Mean Temperature 70 °F -  
Max Temperature 81 °F - - (-1)
Min Temperature 60 °F - - (-1)
Cooling Degree Days 6    
Growing Degree Days 20 (Base 50)    
Moisture  
Dew Point 57 °F    
Average Humidity 66    
Maximum Humidity 97    
Minimum Humidity 36    
Precipitation  
Precipitation 0.00 in - - ()
Sea Level Pressure  
Sea Level Pressure 29.90 in    
Wind  
Wind Speed 3 mph (West)    
Max Wind Speed 10 mph    
Max Gust Speed 20 mph    
Visibility 7 miles    
Events      
Averages and records for this station are not official NWS values.
T = Trace of Precipitation, MM = Missing Value Source: NWS Daily Summary

Daily Weather History Graph

Daily Weather History Graph

Search for Another Location

Airport or City:

Trip Planner

Search our weather history database for the weather conditions in past years. The results will help you decide how hot, cold, wet, or windy it might be!

Date:

Astronomy

May. 16, 2012 Rise Set
Actual Time 5:48 AM EDT 8:15 PM EDT
Civil Twilight 5:17 AM EDT 8:46 PM EDT
Nautical Twilight 4:39 AM EDT 9:24 PM EDT
Astronomical Twilight 3:56 AM EDT 10:07 PM EDT
Moon 3:17 AM EDT (5/16) 4:28 PM EDT (5/16)
Length of Visible Light 15h 28m
Length of Day
14h 27m
Waning Crescent, 16% of the Moon is Illuminated
May 16
Waning Crescent
May 20
New
May 28
First Quarter
Jun 4
Full
Jun 11
Last Quarter

Hourly Weather History & Observations

Time (EDT) Temp. Heat Index Dew Point Humidity Pressure Visibility Wind Dir Wind Speed Gust Speed Precip Events Conditions
12:53 AM 62.1 °F - 60.1 °F 93% 29.93 in 8.0 mi Calm Calm - N/A   Partly Cloudy
1:53 AM 62.1 °F - 60.1 °F 93% 29.90 in 6.0 mi Calm Calm - N/A   Mostly Cloudy
2:53 AM 61.0 °F - 60.1 °F 97% 29.90 in 6.0 mi Calm Calm - N/A   Scattered Clouds
3:53 AM 60.1 °F - 59.0 °F 96% 29.90 in 5.0 mi West 3.5 mph - N/A   Clear
4:53 AM 61.0 °F - 59.0 °F 93% 29.90 in 4.0 mi Calm Calm - N/A   Overcast
5:53 AM 62.1 °F - 60.1 °F 93% 29.90 in 3.0 mi Calm Calm - N/A   Overcast
6:53 AM 62.1 °F - 61.0 °F 96% 29.91 in 2.0 mi Calm Calm - N/A   Overcast
7:41 AM 64.4 °F - 62.6 °F 94% 29.93 in 3.0 mi Calm Calm - N/A   Clear
7:53 AM 64.9 °F - 62.1 °F 90% 29.92 in 3.0 mi Calm Calm - N/A   Clear
8:53 AM 69.1 °F - 61.0 °F 75% 29.92 in 4.0 mi West 6.9 mph - N/A   Haze
9:53 AM 71.1 °F - 61.0 °F 70% 29.92 in 5.0 mi WNW 5.8 mph - N/A   Haze
10:53 AM 73.9 °F - 60.1 °F 62% 29.92 in 8.0 mi NW 5.8 mph - N/A   Clear
11:53 AM 75.9 °F - 59.0 °F 56% 29.92 in 9.0 mi West 3.5 mph - N/A   Clear
12:53 PM 78.1 °F - 57.0 °F 48% 29.91 in 10.0 mi Variable 5.8 mph - N/A   Partly Cloudy
1:53 PM 80.1 °F 79.9 °F 53.1 °F 39% 29.89 in 10.0 mi SW 10.4 mph - N/A   Clear
2:53 PM 81.0 °F - 52.0 °F 36% 29.87 in 10.0 mi West 5.8 mph - N/A   Partly Cloudy
3:53 PM 80.1 °F 79.9 °F 53.1 °F 39% 29.84 in 10.0 mi SW 5.8 mph - N/A   Clear
4:53 PM 81.0 °F 80.4 °F 53.1 °F 38% 29.83 in 10.0 mi WSW 6.9 mph - N/A   Clear
5:53 PM 80.1 °F - 51.1 °F 36% 29.84 in 10.0 mi SW 8.1 mph - N/A   Clear
6:53 PM 78.1 °F - 50.0 °F 37% 29.84 in 10.0 mi SSW 8.1 mph - N/A   Clear
7:53 PM 75.9 °F - 51.1 °F 42% 29.86 in 10.0 mi SSW 5.8 mph - N/A   Mostly Cloudy
8:53 PM 73.0 °F - 59.0 °F 61% 29.87 in 10.0 mi South 10.4 mph - N/A   Overcast
9:53 PM 73.0 °F - 53.1 °F 49% 29.91 in 10.0 mi NNW 10.4 mph 19.6 mph N/A   Scattered Clouds
10:53 PM 68.0 °F - 53.1 °F 59% 29.94 in 10.0 mi NNW 6.9 mph - N/A   Mostly Cloudy
11:53 PM 66.0 °F - 54.0 °F 65% 29.94 in 10.0 mi NNW 4.6 mph - N/A   Mostly Cloudy